EW7704 Weather Reports


Display with metric or nautical units.
time (UTC)temp
F
wind
direction
speed
MPH
gust
MPH
rain 1hr
in
rain 24hr
in
rain mn
in
humidity
%
barometer
mb
20260510012014 55 36 6.0 17.0 0.00 0.00 0.00 63 1010.9
20260510011514 56 24 7.0 15.0 0.00 0.00 0.00 62 1010.6
20260510011017 56 344 6.0 15.0 0.00 0.00 0.00 62 1010.8
20260510010513 56 25 5.0 13.0 0.00 0.00 0.00 61 1010.4
20260510010015 57 42 4.0 13.0 0.00 0.00 0.00 60 1009.9
20260510005511 57 346 5.0 15.0 0.00 0.00 0.00 59 1009.6
20260510005009 57 67 6.0 13.0 0.00 0.00 0.00 58 1009.1
20260510004508 58 205 4.0 14.0 0.00 0.00 0.00 56 1009.2
20260510004010 59 40 6.0 14.0 0.00 0.00 0.00 53 1008.7
20260510003508 60 360 6.0 18.0 0.00 0.00 0.00 51 1008.6
20260510003019 61 214 8.0 18.0 0.00 0.00 0.00 51 1008.1
20260510002506 62 360 6.0 16.0 0.00 0.00 0.00 49 1008.0
20260510002004 62 360 6.0 19.0 0.00 0.00 0.00 47 1007.7
20260510001504 65 45 7.0 19.0 0.00 0.00 0.00 42 1007.2
20260510001004 71 360 6.0 15.0 0.00 0.00 0.00 35 1007.0
20260510000504 72 360 3.0 8.0 0.00 0.00 0.00 26 1006.1
20260510000004 72 360 4.0 10.0 0.00 0.00 0.00 26 1005.7
20260509235505 72 360 5.0 13.0 0.00 0.00 0.00 26 1005.5
20260509235004 72 360 5.0 12.0 0.00 0.00 0.00 26 1005.4
20260509234507 73 53 7.0 10.0 0.00 0.00 0.00 25 1005.4
20260509234005 74 30 4.0 11.0 0.00 0.00 0.00 24 1005.2
20260509233606 74 54 4.0 11.0 0.00 0.00 0.00 23 1005.2
20260509233003 74 42 6.0 10.0 0.00 0.00 0.00 23 1005.1
20260509232507 74 47 6.0 9.0 0.00 0.00 0.00 22 1005.1
20260509232002 74 11 2.0 8.0 0.00 0.00 0.00 21 1004.9
20260509231504 74 10 3.0 12.0 0.00 0.00 0.00 23 1004.8
20260509231002 74 9 2.0 9.0 0.00 0.00 0.00 23 1004.8
20260509230502 74 11 4.0 11.0 0.00 0.00 0.00 24 1004.7
20260509230001 74 9 3.0 9.0 0.00 0.00 0.00 25 1004.7
20260509225502 74 5 3.0 10.0 0.00 0.00 0.00 23 1004.8
20260509225003 73 360 3.0 11.0 0.00 0.00 0.00 24 1004.8
20260509224501 73 9 6.0 11.0 0.00 0.00 0.00 24 1004.8
20260509224002 73 360 4.0 12.0 0.00 0.00 0.00 24 1004.9
20260509223502 73 9 4.0 12.0 0.00 0.00 0.00 25 1004.8
20260509223002 74 5 5.0 11.0 0.00 0.00 0.00 23 1004.8
20260509222600 74 36 7.0 13.0 0.00 0.00 0.00 23 1004.8
20260509222101 75 35 8.0 13.0 0.00 0.00 0.00 23 1004.9
20260509221559 76 24 5.0 11.0 0.00 0.00 0.00 23 1004.9
20260509221059 76 38 6.0 11.0 0.00 0.00 0.00 24 1004.9
20260509220558 76 28 5.0 11.0 0.00 0.00 0.00 24 1005.0
20260509220108 76 46 2.0 10.0 0.00 0.00 0.00 24 1005.0
20260509215559 75 22 5.0 10.0 0.00 0.00 0.00 23 1005.0
20260509215059 75 246 3.0 11.0 0.00 0.00 0.00 23 1004.9
20260509214602 76 32 5.0 11.0 0.00 0.00 0.00 23 1005.0
20260509214057 76 44 5.0 15.0 0.00 0.00 0.00 24 1005.1
20260509213558 76 58 7.0 12.0 0.00 0.00 0.00 23 1005.0
20260509213057 76 19 5.0 12.0 0.00 0.00 0.00 20 1005.1
20260509212557 76 9 4.0 13.0 0.00 0.00 0.00 22 1005.2
20260509212056 75 11 5.0 13.0 0.00 0.00 0.00 20 1005.2
20260509211557 75 13 5.0 11.0 0.00 0.00 0.00 21 1005.2
20260509211057 75 24 4.0 10.0 0.00 0.00 0.00 22 1005.4
20260509210554 74 9 5.0 10.0 0.00 0.00 0.00 22 1005.5
20260509210054 74 360 4.0 11.0 0.00 0.00 0.00 22 1005.6
20260509205553 74 10 3.0 11.0 0.00 0.00 0.00 22 1005.6
20260509205056 75 36 5.0 13.0 0.00 0.00 0.00 22 1005.6
20260509204553 76 42 6.0 13.0 0.00 0.00 0.00 20 1005.7
20260509204054 76 46 5.0 13.0 0.00 0.00 0.00 21 1005.7
20260509203552 76 15 2.0 13.0 0.00 0.00 0.00 21 1005.8
20260509203119 75 31 7.0 13.0 0.00 0.00 0.00 23 1005.8
20260509202555 75 9 1.0 10.0 0.00 0.00 0.00 23 1005.9
20260509202055 75 9 4.0 11.0 0.00 0.00 0.00 21 1006.1
20260509201603 76 302 5.0 11.0 0.00 0.00 0.00 21 1006.1
20260509201051 77 315 2.0 5.0 0.00 0.00 0.00 20 1006.1
20260509200549 76 41 2.0 8.0 0.00 0.00 0.00 23 1006.2
20260509200056 75 14 2.0 8.0 0.00 0.00 0.00 22 1006.3
20260509195550 74 40 2.0 9.0 0.00 0.00 0.00 24 1006.3
20260509195052 74 11 1.0 9.0 0.00 0.00 0.00 22 1006.3
20260509194549 74 10 4.0 14.0 0.00 0.00 0.00 23 1006.3
20260509194049 74 11 8.0 14.0 0.00 0.00 0.00 23 1006.4
20260509193549 74 14 1.0 13.0 0.00 0.00 0.00 23 1006.3
20260509193057 75 9 6.0 14.0 0.00 0.00 0.00 22 1006.3
20260509192547 75 11 1.0 14.0 0.00 0.00 0.00 25 1006.3
20260509192048 73 9 7.0 11.0 0.00 0.00 0.00 23 1006.5
20260509191557 74 11 6.0 11.0 0.00 0.00 0.00 23 1006.5
20260509191050 74 11 2.0 16.0 0.00 0.00 0.00 25 1006.6
20260509190545 73 12 3.0 16.0 0.00 0.00 0.00 24 1006.6
20260509190046 74 9 8.0 12.0 0.00 0.00 0.00 24 1006.6
20260509185545 74 9 6.0 11.0 0.00 0.00 0.00 24 1006.7
20260509185046 73 15 5.0 13.0 0.00 0.00 0.00 23 1006.7
20260509184545 73 9 6.0 13.0 0.00 0.00 0.00 24 1006.8
20260509184044 73 10 8.0 13.0 0.00 0.00 0.00 24 1006.8
20260509183548 73 9 5.0 13.0 0.00 0.00 0.00 25 1006.8
20260509183048 73 11 7.0 13.0 0.00 0.00 0.00 24 1006.8
20260509182543 72 12 4.0 11.0 0.00 0.00 0.00 24 1006.8
20260509182043 73 11 4.0 11.0 0.00 0.00 0.00 25 1006.9
20260509181543 73 11 6.0 12.0 0.00 0.00 0.00 25 1006.9
20260509181042 73 14 2.0 13.0 0.00 0.00 0.00 25 1006.9
20260509180542 73 360 7.0 12.0 0.00 0.00 0.00 25 1007.0
20260509180041 73 5 8.0 12.0 0.00 0.00 0.00 24 1007.0
20260509175541 74 37 4.0 10.0 0.00 0.00 0.00 27 1007.0
20260509175040 73 34 3.0 12.0 0.00 0.00 0.00 25 1007.0
20260509174540 73 10 6.0 14.0 0.00 0.00 0.00 26 1007.0
20260509174039 74 38 7.0 14.0 0.00 0.00 0.00 27 1006.9
20260509173538 74 360 3.0 11.0 0.00 0.00 0.00 26 1007.0
20260509173038 74 38 2.0 10.0 0.00 0.00 0.00 27 1007.0
20260509172538 74 11 4.0 11.0 0.00 0.00 0.00 25 1007.1
20260509172037 74 9 1.0 13.0 0.00 0.00 0.00 26 1007.1
20260509171534 72 9 7.0 13.0 0.00 0.00 0.00 28 1007.0
20260509171037 71 9 7.0 11.0 0.00 0.00 0.00 29 1007.1
20260509170534 71 9 5.0 12.0 0.00 0.00 0.00 31 1007.2
20260509170034 71 9 6.0 12.0 0.00 0.00 0.00 32 1007.3
20260509165534 71 9 5.0 13.0 0.00 0.00 0.00 31 1007.3
20260509165032 70 23 6.0 13.0 0.00 0.00 0.00 32 1007.3
20260509164532 71 11 8.0 11.0 0.00 0.00 0.00 31 1007.2
20260509164034 71 9 5.0 9.0 0.00 0.00 0.00 31 1007.2
20260509163534 71 9 4.0 9.0 0.00 0.00 0.00 31 1007.3
20260509163031 71 67 1.0 3.0 0.00 0.00 0.00 28 1007.2
20260509162531 71 349 1.0 5.0 0.00 0.00 0.00 28 1007.1
20260509162032 72 344 2.0 6.0 0.00 0.00 0.00 28 1007.2
20260509161530 70 289 2.0 6.0 0.00 0.00 0.00 30 1007.2
20260509161029 71 30 0.0 5.0 0.00 0.00 0.00 30 1007.2
20260509160529 72 218 2.0 4.0 0.00 0.00 0.00 32 1007.1
20260509160030 71 208 1.0 4.0 0.00 0.00 0.00 33 1007.1
20260509155526 70 116 1.0 4.0 0.00 0.00 0.00 32 1007.1
20260509155027 70 261 1.0 4.0 0.00 0.00 0.00 30 1007.0
20260509154527 70 78 1.0 4.0 0.00 0.00 0.00 29 1007.0
20260509154026 70 199 2.0 4.0 0.00 0.00 0.00 33 1007.1
20260509153526 69 221 1.0 5.0 0.00 0.00 0.00 31 1007.0
20260509153026 70 229 2.0 5.0 0.00 0.00 0.00 32 1007.2
20260509152526 70 148 0.0 4.0 0.00 0.00 0.00 33 1007.1
20260509152025 70 247 2.0 4.0 0.00 0.00 0.00 33 1007.2
20260509151524 69 221 1.0 5.0 0.00 0.00 0.00 37 1007.1
20260509151022 68 243 2.0 5.0 0.00 0.00 0.00 34 1007.1
20260509150522 69 223 1.0 3.0 0.00 0.00 0.00 35 1007.2
20260509150021 68 210 1.0 4.0 0.00 0.00 0.00 39 1007.3
20260509145520 67 204 0.0 4.0 0.00 0.00 0.00 40 1007.3
20260509145021 65 227 0.0 4.0 0.00 0.00 0.00 44 1007.5
20260509144524 64 219 1.0 3.0 0.00 0.00 0.00 44 1007.4
20260509144017 63 107 0.0 3.0 0.00 0.00 0.00 51 1007.4
20260509143518 62 43 1.0 3.0 0.00 0.00 0.00 53 1007.4
20260509143013 62 42 0.0 3.0 0.00 0.00 0.00 54 1007.5
20260509142512 60 186 1.0 3.0 0.00 0.00 0.00 55 1007.5
20260509142011 60 31 0.0 4.0 0.00 0.00 0.00 59 1007.4
20260509141510 59 180 1.0 4.0 0.00 0.00 0.00 60 1007.5
20260509141010 58 121 0.0 4.0 0.00 0.00 0.00 65 1007.5
20260509140505 57 186 0.0 4.0 0.00 0.00 0.00 64 1007.6
20260509140105 56 123 0.0 4.0 0.00 0.00 0.00 67 1007.7
20260509135507 54 115 0.0 3.0 0.00 0.00 0.00 73 1007.8
20260509135004 52 181 0.0 3.0 0.00 0.00 0.00 73 1007.8
20260509134504 52 116 1.0 4.0 0.00 0.00 0.00 73 1007.8
20260509134002 52 246 0.0 4.0 0.00 0.00 0.00 73 1007.8
20260509133505 51 150 0.0 2.0 0.00 0.00 0.00 75 1007.7
20260509133004 51 360 0.0 3.0 0.00 0.00 0.00 77 1007.7
20260509132503 50 360 1.0 3.0 0.00 0.00 0.00 77 1007.6
20260509132101 50 360 2.0 3.0 0.00 0.00 0.00 76 1007.6
20260509132000 50 360 2.0 3.0 0.00 0.00 0.00 75 1007.5
20260509131605 51 360 0.0 2.0 0.00 0.00 0.00 76 1007.5
20260509131058 51 360 0.0 2.0 0.00 0.00 0.00 76 1007.3
20260509130558 50 360 0.0 3.0 0.00 0.00 0.00 76 1007.3
20260509130105 49 360 1.0 3.0 0.00 0.00 0.00 77 1007.2
20260509125559 49 360 1.0 3.0 0.00 0.00 0.00 77 1007.0
20260509125057 49 360 0.0 2.0 0.00 0.00 0.00 77 1007.0
20260509124558 49 360 0.0 2.0 0.00 0.00 0.00 77 1006.9
20260509124058 48 360 0.0 5.0 0.00 0.00 0.00 77 1006.9
20260509123558 49 360 1.0 5.0 0.00 0.00 0.00 76 1007.0
20260509123057 49 360 0.0 8.0 0.00 0.00 0.00 75 1006.9
20260509122556 49 360 4.0 8.0 0.00 0.00 0.00 74 1006.9
20260509122056 49 360 0.0 6.0 0.00 0.00 0.00 74 1006.7
20260509121556 49 360 0.0 4.0 0.00 0.00 0.00 73 1006.6
20260509121056 49 360 0.0 2.0 0.00 0.00 0.00 74 1006.5
20260509120556 48 360 0.0 3.0 0.00 0.00 0.00 74 1006.2
20260509120059 48 360 2.0 3.0 0.00 0.00 0.00 77 1006.4
20260509115554 47 360 0.0 4.0 0.00 0.00 0.00 78 1006.2
20260509115054 47 360 0.0 4.0 0.00 0.00 0.00 79 1006.3
20260509114554 47 360 1.0 5.0 0.00 0.00 0.00 81 1006.1
20260509114054 46 360 0.0 5.0 0.00 0.00 0.00 82 1006.4
20260509113552 46 360 0.0 2.0 0.00 0.00 0.00 80 1006.3
20260509113052 46 360 1.0 2.0 0.00 0.00 0.00 79 1006.3
20260509112550 46 360 0.0 3.0 0.00 0.00 0.00 80 1006.2
20260509112050 47 360 0.0 3.0 0.00 0.00 0.00 78 1006.2
20260509111551 47 360 0.0 2.0 0.00 0.00 0.00 80 1006.2
20260509111049 47 360 0.0 3.0 0.00 0.00 0.00 80 1006.0
20260509110549 47 360 0.0 3.0 0.00 0.00 0.00 79 1006.2
20260509110050 47 360 0.0 2.0 0.00 0.00 0.00 80 1006.3
20260509105548 47 360 0.0 2.0 0.00 0.00 0.00 81 1006.2
20260509105049 47 360 0.0 2.0 0.00 0.00 0.00 80 1006.2
20260509104548 47 360 0.0 2.0 0.00 0.00 0.00 79 1006.1
20260509104047 47 360 0.0 2.0 0.00 0.00 0.00 78 1006.1
20260509103547 48 360 0.0 2.0 0.00 0.00 0.00 77 1006.2
20260509103047 48 360 0.0 2.0 0.00 0.00 0.00 78 1005.9
20260509102548 48 360 0.0 1.0 0.00 0.00 0.00 78 1006.0
20260509102049 48 360 0.0 2.0 0.00 0.00 0.00 78 1006.0
20260509101546 48 360 0.0 4.0 0.00 0.00 0.00 80 1006.0
20260509101045 47 360 2.0 4.0 0.00 0.00 0.00 80 1006.0
20260509100544 47 360 0.0 2.0 0.00 0.00 0.00 79 1006.1
20260509100043 47 360 0.0 1.0 0.00 0.00 0.00 78 1005.9
20260509095544 48 360 0.0 1.0 0.00 0.00 0.00 76 1005.9
20260509095042 48 360 0.0 2.0 0.00 0.00 0.00 76 1006.0
20260509094543 49 360 0.0 2.0 0.00 0.00 0.00 76 1006.0
20260509094043 48 360 0.0 3.0 0.00 0.00 0.00 77 1006.2
20260509093542 48 360 0.0 3.0 0.00 0.00 0.00 78 1006.3
20260509093041 48 360 0.0 2.0 0.00 0.00 0.00 78 1006.2
20260509092542 48 360 0.0 1.0 0.00 0.00 0.00 78 1006.1
20260509092042 48 360 0.0 1.0 0.00 0.00 0.00 78 1006.0
20260509091542 49 360 0.0 2.0 0.00 0.00 0.00 78 1006.1
20260509091041 48 360 0.0 2.0 0.00 0.00 0.00 79 1006.1
20260509090541 48 360 0.0 3.0 0.00 0.00 0.00 80 1006.0
20260509090040 47 360 1.0 3.0 0.00 0.00 0.00 80 1006.0
20260509085538 48 360 0.0 2.0 0.00 0.00 0.00 79 1005.9
20260509085038 48 360 0.0 2.0 0.00 0.00 0.00 79 1005.9
20260509084539 48 360 0.0 2.0 0.00 0.00 0.00 79 1006.0
20260509084037 48 360 0.0 2.0 0.00 0.00 0.00 78 1005.8
20260509083535 49 360 1.0 2.0 0.00 0.00 0.00 76 1005.8
20260509083039 49 360 0.0 1.0 0.00 0.00 0.00 76 1005.9
20260509082534 49 360 0.0 1.0 0.00 0.00 0.00 76 1005.8
20260509082033 49 360 0.0 1.0 0.00 0.00 0.00 75 1005.9
20260509081536 50 360 0.0 2.0 0.00 0.00 0.00 74 1005.9
20260509081031 50 360 0.0 2.0 0.00 0.00 0.00 74 1005.8
20260509080531 50 360 0.0 3.0 0.00 0.00 0.00 73 1005.8
20260509080036 50 360 0.0 3.0 0.00 0.00 0.00 72 1005.8
20260509075529 51 360 0.0 2.0 0.00 0.00 0.00 71 1006.0
20260509075030 51 360 1.0 3.0 0.00 0.00 0.00 70 1006.0
20260509074526 51 360 1.0 3.0 0.00 0.00 0.00 70 1006.0
20260509074025 51 360 0.0 2.0 0.00 0.00 0.00 69 1006.1
20260509073524 52 360 0.0 2.0 0.00 0.00 0.00 67 1006.0
20260509073023 52 360 0.0 3.0 0.00 0.00 0.00 65 1006.2
20260509072524 53 360 0.0 3.0 0.00 0.00 0.00 65 1006.3
20260509072122 52 360 1.0 3.0 0.00 0.00 0.00 66 1006.3
20260509071522 53 360 0.0 3.0 0.00 0.00 0.00 65 1006.3
20260509071023 53 360 1.0 4.0 0.00 0.00 0.00 64 1006.4
20260509070521 54 360 0.0 4.0 0.00 0.00 0.00 63 1006.4
20260509070021 54 360 1.0 4.0 0.00 0.00 0.00 64 1006.5
20260509065519 53 360 2.0 3.0 0.00 0.00 0.00 66 1006.5
20260509065019 52 360 0.0 1.0 0.00 0.00 0.00 66 1006.6
20260509064522 52 360 0.0 1.0 0.00 0.00 0.00 66 1006.7
20260509064023 53 360 0.0 1.0 0.00 0.00 0.00 66 1006.6
20260509063518 52 360 0.0 1.0 0.00 0.00 0.00 66 1006.7
20260509063018 53 360 0.0 1.0 0.00 0.00 0.00 65 1006.8
20260509062517 53 360 0.0 1.0 0.00 0.00 0.00 65 1006.9
20260509062016 53 360 0.0 2.0 0.00 0.00 0.00 65 1006.9
20260509061513 53 360 0.0 2.0 0.00 0.00 0.00 64 1006.9
20260509061013 53 360 0.0 3.0 0.00 0.00 0.00 64 1007.0
20260509060512 53 360 1.0 3.0 0.00 0.00 0.00 65 1007.1
20260509060013 53 360 0.0 2.0 0.00 0.00 0.00 64 1007.3
20260509055512 54 360 0.0 2.0 0.00 0.00 0.00 62 1007.2
20260509055011 54 83 0.0 1.0 0.00 0.00 0.00 60 1007.1
20260509054510 55 74 0.0 1.0 0.00 0.00 0.00 59 1007.2
20260509054010 55 74 0.0 1.0 0.00 0.00 0.00 60 1007.2
20260509053510 55 100 0.0 1.0 0.00 0.00 0.00 59 1007.3
20260509053008 56 99 0.0 1.0 0.00 0.00 0.00 58 1007.3
20260509052509 56 102 0.0 3.0 0.00 0.00 0.00 57 1007.3
20260509052009 56 109 0.0 4.0 0.00 0.00 0.00 57 1007.3
20260509051508 56 74 0.0 4.0 0.00 0.00 0.00 58 1007.3
20260509051009 56 98 1.0 4.0 0.00 0.00 0.00 59 1007.3
20260509050509 55 109 2.0 4.0 0.00 0.00 0.00 60 1007.4
20260509050009 55 109 1.0 4.0 0.00 0.00 0.00 60 1007.5
20260509045508 55 93 1.0 3.0 0.00 0.00 0.00 60 1007.6
20260509045007 56 53 1.0 3.0 0.00 0.00 0.00 59 1007.6
20260509044508 56 91 1.0 4.0 0.00 0.00 0.00 59 1007.7
20260509044012 56 102 1.0 4.0 0.00 0.00 0.00 59 1007.7
20260509043507 56 62 0.0 5.0 0.00 0.00 0.00 59 1007.8
20260509043007 56 98 1.0 5.0 0.00 0.00 0.00 59 1008.0
20260509042508 56 80 1.0 4.0 0.00 0.00 0.00 59 1008.0
20260509042007 56 86 1.0 6.0 0.00 0.00 0.00 59 1008.1
20260509041509 56 84 2.0 6.0 0.00 0.00 0.00 58 1008.1
20260509041007 56 92 2.0 5.0 0.00 0.00 0.00 59 1008.1
20260509040506 57 78 2.0 8.0 0.00 0.00 0.00 58 1008.2
20260509040006 57 90 2.0 8.0 0.00 0.00 0.00 57 1008.2
20260509035507 57 106 2.0 5.0 0.00 0.00 0.00 56 1008.3
20260509035007 57 90 1.0 3.0 0.00 0.00 0.00 58 1008.3
20260509034505 57 360 0.0 2.0 0.00 0.00 0.00 58 1008.3
20260509034006 57 360 0.0 2.0 0.00 0.00 0.00 57 1008.2
20260509033506 57 178 0.0 2.0 0.00 0.00 0.00 56 1008.2
20260509033006 58 179 0.0 2.0 0.00 0.00 0.00 54 1008.3
20260509032509 59 150 0.0 2.0 0.00 0.00 0.00 51 1008.2
20260509032005 59 103 0.0 3.0 0.00 0.00 0.00 50 1008.2
20260509031505 59 74 0.0 3.0 0.00 0.00 0.00 50 1008.1
20260509031004 59 104 1.0 6.0 0.00 0.00 0.00 50 1008.1
20260509030505 60 109 2.0 6.0 0.00 0.00 0.00 49 1007.9
20260509030012 60 98 1.0 3.0 0.00 0.00 0.00 49 1008.1
20260509025505 60 116 1.0 4.0 0.00 0.00 0.00 49 1008.0
20260509025004 60 103 1.0 3.0 0.00 0.00 0.00 49 1007.9
20260509024509 60 126 1.0 4.0 0.00 0.00 0.00 49 1007.8
20260509024004 60 100 2.0 4.0 0.00 0.00 0.00 48 1007.9
20260509023503 61 112 1.0 3.0 0.00 0.00 0.00 48 1007.8
20260509023012 61 107 1.0 3.0 0.00 0.00 0.00 48 1007.8
20260509022504 61 111 1.0 4.0 0.00 0.00 0.00 47 1007.8
20260509022004 62 139 2.0 4.0 0.00 0.00 0.00 46 1007.8
20260509021503 62 93 1.0 3.0 0.00 0.00 0.00 45 1007.8
20260509021002 62 93 0.0 2.0 0.00 0.00 0.00 44 1007.7
20260509020502 63 93 0.0 2.0 0.00 0.00 0.00 44 1007.7
20260509020007 63 93 0.0 2.0 0.00 0.00 0.00 43 1007.7
20260509015503 63 93 1.0 3.0 0.00 0.00 0.00 43 1007.6
20260509015003 63 93 1.0 4.0 0.00 0.00 0.00 43 1007.5
20260509014502 64 360 1.0 4.0 0.00 0.00 0.00 42 1007.5
20260509014002 64 360 1.0 4.0 0.00 0.00 0.00 42 1007.5
20260509013502 64 360 1.0 3.0 0.00 0.00 0.00 41 1007.6
20260509013001 65 360 2.0 3.0 0.00 0.00 0.00 40 1007.5
20260509012502 65 360 1.0 5.0 0.00 0.00 0.00 40 1007.5